Time,TemperatureF,DewpointF,PressureIn,WindDirection,WindDirectionDegrees,WindSpeedMPH,WindSpeedGustMPH,Humidity,HourlyPrecipIn,Conditions,Clouds,dailyrainin,SoftwareType,DateUTC
2013-05-07 00:02:00,66.8,58.7,29.91,South,180,0.0,0.0,75,0.00,,,0.00,WSDL version 420,2013-05-07 04:02:00,
2013-05-07 00:07:00,66.7,58.6,29.91,South,180,0.0,0.0,75,0.00,,,0.00,WSDL version 420,2013-05-07 04:07:00,
2013-05-07 00:12:00,66.7,58.5,29.91,South,180,0.0,0.0,75,0.00,,,0.00,WSDL version 420,2013-05-07 04:12:00,
2013-05-07 00:17:00,66.6,58.4,29.91,South,180,0.0,0.0,75,0.00,,,0.00,WSDL version 420,2013-05-07 04:17:00,
2013-05-07 00:22:00,66.6,58.6,29.91,South,180,0.0,0.0,76,0.00,,,0.00,WSDL version 420,2013-05-07 04:22:00,
2013-05-07 00:27:00,66.5,58.5,29.91,South,180,0.0,0.0,75,0.00,,,0.00,WSDL version 420,2013-05-07 04:27:00,
2013-05-07 00:32:00,66.3,58.2,29.91,South,180,0.0,0.0,75,0.00,,,0.00,WSDL version 420,2013-05-07 04:32:00,
2013-05-07 00:37:00,66.1,58.2,29.91,South,180,0.0,0.0,76,0.00,,,0.00,WSDL version 420,2013-05-07 04:37:00,
2013-05-07 00:42:00,66.0,58.2,29.91,South,180,0.0,0.0,76,0.00,,,0.00,WSDL version 420,2013-05-07 04:42:00,
2013-05-07 00:47:00,65.8,58.1,29.91,South,180,0.0,0.0,76,0.00,,,0.00,WSDL version 420,2013-05-07 04:47:00,
2013-05-07 00:52:00,65.7,57.9,29.91,South,180,0.0,0.0,76,0.00,,,0.00,WSDL version 420,2013-05-07 04:52:00,
2013-05-07 00:57:00,65.5,57.8,29.91,South,180,0.0,0.0,76,0.00,,,0.00,WSDL version 420,2013-05-07 04:57:00,
2013-05-07 01:02:00,65.4,57.6,29.91,South,180,0.0,0.0,76,0.00,,,0.00,WSDL version 420,2013-05-07 05:02:00,
2013-05-07 01:07:00,65.2,57.4,29.91,South,180,0.0,0.0,76,0.00,,,0.00,WSDL version 420,2013-05-07 05:07:00,
2013-05-07 01:12:00,65.1,57.3,29.91,South,180,0.0,0.0,76,0.00,,,0.00,WSDL version 420,2013-05-07 05:12:00,
2013-05-07 01:17:00,64.9,57.2,29.91,South,180,0.0,0.0,76,0.00,,,0.00,WSDL version 420,2013-05-07 05:17:00,
2013-05-07 01:22:00,64.9,57.2,29.91,South,180,0.0,0.0,76,0.00,,,0.00,WSDL version 420,2013-05-07 05:22:00,
2013-05-07 01:27:00,65.0,56.9,29.91,South,180,0.0,0.0,75,0.00,,,0.00,WSDL version 420,2013-05-07 05:27:00,
2013-05-07 01:32:00,65.1,56.9,29.88,SE,135,0.0,0.0,74,0.00,,,0.00,WSDL version 420,2013-05-07 05:32:00,
2013-05-07 01:37:00,64.9,56.5,29.88,SE,135,0.0,0.0,74,0.00,,,0.00,WSDL version 420,2013-05-07 05:37:00,
2013-05-07 01:42:00,64.9,56.3,29.88,SE,135,0.0,0.0,73,0.00,,,0.00,WSDL version 420,2013-05-07 05:42:00,
2013-05-07 01:47:00,64.8,55.9,29.91,SE,135,0.0,0.0,73,0.00,,,0.00,WSDL version 420,2013-05-07 05:47:00,
2013-05-07 01:52:00,64.8,55.9,29.91,SE,135,0.0,0.0,73,0.00,,,0.00,WSDL version 420,2013-05-07 05:52:00,
2013-05-07 01:57:00,64.7,55.9,29.91,SE,135,0.0,0.0,73,0.00,,,0.00,WSDL version 420,2013-05-07 05:57:00,
2013-05-07 02:02:00,64.5,55.7,29.91,SE,135,0.0,0.0,73,0.00,,,0.00,WSDL version 420,2013-05-07 06:02:00,
2013-05-07 02:07:00,64.4,55.6,29.91,SE,135,0.0,0.0,73,0.00,,,0.00,WSDL version 420,2013-05-07 06:07:00,
2013-05-07 02:12:00,64.3,55.8,29.91,SE,135,0.0,0.0,74,0.00,,,0.00,WSDL version 420,2013-05-07 06:12:00,
2013-05-07 02:17:00,64.2,55.7,29.91,SE,135,0.0,0.0,74,0.00,,,0.00,WSDL version 420,2013-05-07 06:17:00,
2013-05-07 02:22:00,63.9,55.5,29.91,SE,135,0.0,0.0,74,0.00,,,0.00,WSDL version 420,2013-05-07 06:22:00,
2013-05-07 02:27:00,63.7,55.3,29.91,SE,135,0.0,0.0,74,0.00,,,0.00,WSDL version 420,2013-05-07 06:27:00,
2013-05-07 02:32:00,63.6,55.2,29.91,SE,135,0.0,0.0,74,0.00,,,0.00,WSDL version 420,2013-05-07 06:32:00,
2013-05-07 02:37:00,63.5,55.1,29.91,SE,135,0.0,0.0,74,0.00,,,0.00,WSDL version 420,2013-05-07 06:37:00,
2013-05-07 02:42:00,63.4,55.2,29.91,SE,135,0.0,0.0,75,0.00,,,0.00,WSDL version 420,2013-05-07 06:42:00,
2013-05-07 02:47:00,63.3,55.3,29.91,SE,135,0.0,0.0,75,0.00,,,0.00,WSDL version 420,2013-05-07 06:47:00,
2013-05-07 02:52:00,63.3,55.2,29.91,SE,135,0.0,0.0,75,0.00,,,0.00,WSDL version 420,2013-05-07 06:52:00,
2013-05-07 02:57:00,63.1,55.1,29.91,SE,135,0.0,0.0,75,0.00,,,0.00,WSDL version 420,2013-05-07 06:57:00,
2013-05-07 03:02:00,63.0,55.1,29.91,SE,135,0.0,0.0,76,0.00,,,0.00,WSDL version 420,2013-05-07 07:02:00,
2013-05-07 03:07:00,62.8,55.1,29.91,SE,135,0.0,0.0,76,0.00,,,0.00,WSDL version 420,2013-05-07 07:07:00,
2013-05-07 03:12:00,62.7,55.0,29.91,SE,135,0.0,0.0,76,0.00,,,0.00,WSDL version 420,2013-05-07 07:12:00,
2013-05-07 03:17:00,62.6,55.0,29.91,SE,135,0.0,0.0,77,0.00,,,0.00,WSDL version 420,2013-05-07 07:17:00,
2013-05-07 03:22:00,62.6,55.3,29.91,SE,135,0.0,0.0,77,0.00,,,0.00,WSDL version 420,2013-05-07 07:22:00,
2013-05-07 03:27:00,62.6,55.3,29.91,SE,135,0.0,0.0,77,0.00,,,0.00,WSDL version 420,2013-05-07 07:27:00,
2013-05-07 03:32:00,62.3,55.0,29.91,SE,135,0.0,0.0,77,0.00,,,0.00,WSDL version 420,2013-05-07 07:32:00,
2013-05-07 03:37:00,62.2,54.9,29.91,SE,135,0.0,0.0,77,0.00,,,0.00,WSDL version 420,2013-05-07 07:37:00,
2013-05-07 03:42:00,62.0,54.7,29.91,SE,135,0.0,0.0,77,0.00,,,0.00,WSDL version 420,2013-05-07 07:42:00,
2013-05-07 03:47:00,61.9,54.6,29.91,SE,135,0.0,0.0,77,0.00,,,0.00,WSDL version 420,2013-05-07 07:47:00,
2013-05-07 03:52:00,61.9,54.6,29.91,SE,135,0.0,0.0,77,0.00,,,0.00,WSDL version 420,2013-05-07 07:52:00,
2013-05-07 03:57:00,61.9,54.4,29.91,SW,225,0.0,0.0,76,0.00,,,0.00,WSDL version 420,2013-05-07 07:57:00,
2013-05-07 04:02:00,62.1,54.1,29.94,SSE,164,0.0,0.0,75,0.00,,,0.00,WSDL version 420,2013-05-07 08:02:00,
2013-05-07 04:07:00,62.1,53.7,29.94,SW,225,0.0,0.0,74,0.00,,,0.00,WSDL version 420,2013-05-07 08:07:00,
2013-05-07 04:12:00,62.1,53.6,29.94,South,174,0.0,0.0,73,0.00,,,0.00,WSDL version 420,2013-05-07 08:12:00,
2013-05-07 04:17:00,62.1,53.3,29.91,SSE,158,0.0,0.9,73,0.00,,,0.00,WSDL version 420,2013-05-07 08:17:00,
2013-05-07 04:22:00,62.0,53.3,29.91,SW,225,0.0,0.9,73,0.00,,,0.00,WSDL version 420,2013-05-07 08:22:00,
2013-05-07 04:27:00,61.9,53.1,29.91,West,270,0.0,0.0,73,0.00,,,0.00,WSDL version 420,2013-05-07 08:27:00,
2013-05-07 04:32:00,61.8,53.0,29.91,WSW,248,0.0,0.0,73,0.00,,,0.00,WSDL version 420,2013-05-07 08:32:00,
2013-05-07 04:37:00,61.6,52.9,29.91,WSW,248,0.0,0.0,73,0.00,,,0.00,WSDL version 420,2013-05-07 08:37:00,
2013-05-07 04:42:00,61.4,52.7,29.91,WSW,248,0.0,0.0,73,0.00,,,0.00,WSDL version 420,2013-05-07 08:42:00,
2013-05-07 04:47:00,61.3,52.6,29.88,WSW,248,0.0,0.0,73,0.00,,,0.00,WSDL version 420,2013-05-07 08:47:00,
2013-05-07 04:52:00,61.3,52.6,29.88,WSW,248,0.0,0.0,73,0.00,,,0.00,WSDL version 420,2013-05-07 08:52:00,
2013-05-07 04:57:00,61.1,52.8,29.88,WSW,248,0.0,0.0,74,0.00,,,0.00,WSDL version 420,2013-05-07 08:57:00,
2013-05-07 05:02:00,61.0,52.6,29.88,WSW,248,0.0,0.0,74,0.00,,,0.00,WSDL version 420,2013-05-07 09:02:00,
2013-05-07 05:07:00,60.7,52.4,29.88,WSW,248,0.0,0.0,74,0.00,,,0.00,WSDL version 420,2013-05-07 09:07:00,
2013-05-07 05:12:00,60.6,52.6,29.88,West,261,0.0,0.0,75,0.00,,,0.00,WSDL version 420,2013-05-07 09:12:00,
2013-05-07 05:17:00,60.6,52.7,29.88,West,270,0.0,0.0,75,0.00,,,0.00,WSDL version 420,2013-05-07 09:17:00,
2013-05-07 05:22:00,60.6,52.7,29.88,West,270,0.0,0.0,75,0.00,,,0.00,WSDL version 420,2013-05-07 09:22:00,
2013-05-07 05:27:00,60.6,52.7,29.88,West,270,0.0,0.0,75,0.00,,,0.00,WSDL version 420,2013-05-07 09:27:00,
2013-05-07 05:32:00,60.6,52.7,29.91,West,270,0.0,0.0,75,0.00,,,0.00,WSDL version 420,2013-05-07 09:32:00,
2013-05-07 05:37:00,60.6,52.7,29.91,West,270,0.0,0.0,75,0.00,,,0.00,WSDL version 420,2013-05-07 09:37:00,
2013-05-07 05:42:00,60.4,52.5,29.91,West,270,0.0,0.0,75,0.00,,,0.00,WSDL version 420,2013-05-07 09:42:00,
2013-05-07 05:47:00,60.4,52.5,29.91,West,270,0.0,0.0,75,0.00,,,0.00,WSDL version 420,2013-05-07 09:47:00,
2013-05-07 05:52:00,60.4,52.8,29.91,West,270,0.0,0.0,76,0.00,,,0.00,WSDL version 420,2013-05-07 09:52:00,
2013-05-07 05:57:00,60.3,52.7,29.91,West,270,0.0,0.0,76,0.00,,,0.00,WSDL version 420,2013-05-07 09:57:00,
2013-05-07 06:02:00,60.3,52.7,29.91,West,270,0.0,0.0,76,0.00,,,0.00,WSDL version 420,2013-05-07 10:02:00,
2013-05-07 06:07:00,60.2,52.6,29.91,West,270,0.0,0.0,76,0.00,,,0.00,WSDL version 420,2013-05-07 10:07:00,
2013-05-07 06:12:00,59.9,52.1,29.91,West,270,0.0,0.0,76,0.00,,,0.00,WSDL version 420,2013-05-07 10:12:00,
2013-05-07 06:17:00,59.7,52.2,29.91,West,270,0.0,0.0,76,0.00,,,0.00,WSDL version 420,2013-05-07 10:17:00,
2013-05-07 06:22:00,59.6,52.1,29.91,West,270,0.0,0.0,76,0.00,,,0.00,WSDL version 420,2013-05-07 10:22:00,
2013-05-07 06:27:00,59.4,52.0,29.91,West,270,0.0,0.0,77,0.00,,,0.00,WSDL version 420,2013-05-07 10:27:00,
2013-05-07 06:32:00,59.4,52.2,29.94,West,270,0.0,0.0,77,0.00,,,0.00,WSDL version 420,2013-05-07 10:32:00,
2013-05-07 06:37:00,59.4,52.2,29.94,West,270,0.0,0.0,77,0.00,,,0.00,WSDL version 420,2013-05-07 10:37:00,
2013-05-07 06:42:00,59.4,52.4,29.94,West,270,0.0,0.0,77,0.00,,,0.00,WSDL version 420,2013-05-07 10:42:00,
2013-05-07 06:47:00,59.4,52.2,29.94,West,270,0.0,0.0,78,0.00,,,0.00,WSDL version 420,2013-05-07 10:47:00,
2013-05-07 06:52:00,59.3,52.4,29.94,West,270,0.0,0.0,78,0.00,,,0.00,WSDL version 420,2013-05-07 10:52:00,
2013-05-07 06:57:00,59.4,52.5,29.94,West,270,0.0,0.0,78,0.00,,,0.00,WSDL version 420,2013-05-07 10:57:00,
2013-05-07 07:02:00,59.4,52.6,29.94,West,270,0.0,0.0,78,0.00,,,0.00,WSDL version 420,2013-05-07 11:02:00,
2013-05-07 07:07:00,59.5,52.7,29.94,West,270,0.0,0.0,78,0.00,,,0.00,WSDL version 420,2013-05-07 11:07:00,
2013-05-07 07:12:00,59.7,53.0,29.94,West,270,0.0,0.0,79,0.00,,,0.00,WSDL version 420,2013-05-07 11:12:00,
2013-05-07 07:17:00,60.1,53.2,29.94,NNW,341,0.0,0.0,78,0.00,,,0.00,WSDL version 420,2013-05-07 11:17:00,
2013-05-07 07:22:00,60.1,53.6,29.94,North,360,0.0,0.0,79,0.00,,,0.00,WSDL version 420,2013-05-07 11:22:00,
2013-05-07 07:27:00,60.5,53.6,29.94,North,349,0.0,0.0,78,0.00,,,0.00,WSDL version 420,2013-05-07 11:27:00,
2013-05-07 07:32:00,60.7,53.8,29.94,NNW,343,0.0,0.0,78,0.00,,,0.00,WSDL version 420,2013-05-07 11:32:00,
2013-05-07 07:37:00,61.1,53.9,29.94,NNE,23,0.0,0.9,77,0.00,,,0.00,WSDL version 420,2013-05-07 11:37:00,
2013-05-07 07:42:00,61.6,54.1,29.94,NNW,347,0.0,1.6,76,0.00,,,0.00,WSDL version 420,2013-05-07 11:42:00,
2013-05-07 07:47:00,61.9,54.0,29.94,NNW,345,1.0,1.6,75,0.00,,,0.00,WSDL version 420,2013-05-07 11:47:00,
2013-05-07 07:52:00,62.2,54.1,29.94,NW,323,0.0,1.6,74,0.00,,,0.00,WSDL version 420,2013-05-07 11:52:00,
2013-05-07 07:57:00,62.5,54.0,29.94,North,360,0.0,0.0,73,0.00,,,0.00,WSDL version 420,2013-05-07 11:57:00,
2013-05-07 08:02:00,62.9,54.1,29.94,NNE,16,0.0,1.1,73,0.00,,,0.00,WSDL version 420,2013-05-07 12:02:00,
2013-05-07 08:07:00,63.4,54.6,29.94,NE,45,0.0,1.1,73,0.00,,,0.00,WSDL version 420,2013-05-07 12:07:00,
2013-05-07 08:12:00,64.0,54.8,29.94,NE,45,0.0,1.6,72,0.00,,,0.00,WSDL version 420,2013-05-07 12:12:00,
2013-05-07 08:17:00,64.8,55.2,29.97,North,354,0.0,1.6,71,0.00,,,0.00,WSDL version 420,2013-05-07 12:17:00,
2013-05-07 08:22:00,65.5,55.5,29.97,North,357,0.0,2.0,70,0.00,,,0.00,WSDL version 420,2013-05-07 12:22:00,
2013-05-07 08:27:00,66.4,56.1,29.97,North,360,1.0,2.2,69,0.00,,,0.00,WSDL version 420,2013-05-07 12:27:00,
2013-05-07 08:32:00,67.6,56.5,29.97,NNE,15,0.0,2.7,66,0.00,,,0.00,WSDL version 420,2013-05-07 12:32:00,
2013-05-07 08:37:00,69.5,57.4,29.97,North,3,0.0,2.7,64,0.00,,,0.00,WSDL version 420,2013-05-07 12:37:00,
2013-05-07 08:42:00,71.4,58.0,29.97,WNW,297,0.0,2.5,62,0.00,,,0.00,WSDL version 420,2013-05-07 12:42:00,
2013-05-07 08:47:00,73.0,56.8,29.97,North,350,0.0,3.1,56,0.00,,,0.00,WSDL version 420,2013-05-07 12:47:00,
2013-05-07 08:52:00,74.9,56.8,29.97,NNW,338,1.4,3.1,53,0.00,,,0.00,WSDL version 420,2013-05-07 12:52:00,
2013-05-07 08:57:00,76.6,56.7,29.97,North,353,0.3,2.2,49,0.00,,,0.00,WSDL version 420,2013-05-07 12:57:00,
2013-05-07 09:02:00,77.7,55.6,29.97,North,5,0.6,2.0,45,0.00,,,0.00,WSDL version 420,2013-05-07 13:02:00,
2013-05-07 09:07:00,78.4,54.7,29.97,NNW,330,0.7,2.5,43,0.00,,,0.00,WSDL version 420,2013-05-07 13:07:00,
2013-05-07 09:12:00,78.9,54.2,29.97,East,98,1.3,2.9,41,0.00,,,0.00,WSDL version 420,2013-05-07 13:12:00,
2013-05-07 09:17:00,79.4,54.3,29.97,NNW,347,1.2,3.4,42,0.00,,,0.00,WSDL version 420,2013-05-07 13:17:00,
2013-05-07 09:22:00,80.7,55.4,29.97,NNW,338,0.9,3.4,42,0.00,,,0.00,WSDL version 420,2013-05-07 13:22:00,
2013-05-07 09:27:00,81.1,54.6,29.97,North,350,0.0,3.6,40,0.00,,,0.00,WSDL version 420,2013-05-07 13:27:00,
2013-05-07 09:32:00,82.1,55.4,29.97,North,8,1.9,4.7,39,0.00,,,0.00,WSDL version 420,2013-05-07 13:32:00,
2013-05-07 09:37:00,82.3,54.2,29.97,North,360,1.8,4.7,38,0.00,,,0.00,WSDL version 420,2013-05-07 13:37:00,
2013-05-07 09:42:00,82.2,54.1,29.97,North,11,2.7,4.7,39,0.00,,,0.00,WSDL version 420,2013-05-07 13:42:00,
2013-05-07 09:47:00,82.5,55.2,29.97,SSE,161,0.3,4.7,39,0.00,,,0.00,WSDL version 420,2013-05-07 13:47:00,
2013-05-07 09:52:00,82.6,54.4,29.97,West,273,1.6,3.4,38,0.00,,,0.00,WSDL version 420,2013-05-07 13:52:00,
2013-05-07 09:57:00,82.2,53.7,29.97,SW,225,2.8,5.8,38,0.00,,,0.00,WSDL version 420,2013-05-07 13:57:00,
2013-05-07 10:02:00,82.0,53.4,29.97,East,80,0.4,5.8,37,0.00,,,0.00,WSDL version 420,2013-05-07 14:02:00,
2013-05-07 10:07:00,82.0,53.9,29.97,WNW,302,1.8,4.7,38,0.00,,,0.00,WSDL version 420,2013-05-07 14:07:00,
2013-05-07 10:12:00,82.3,54.4,29.97,North,3,2.5,4.3,37,0.00,,,0.00,WSDL version 420,2013-05-07 14:12:00,
2013-05-07 10:17:00,81.7,53.5,29.97,SE,146,1.2,4.3,38,0.00,,,0.00,WSDL version 420,2013-05-07 14:17:00,
2013-05-07 10:22:00,81.3,53.3,29.97,North,356,2.2,4.9,38,0.00,,,0.00,WSDL version 420,2013-05-07 14:22:00,
2013-05-07 10:27:00,80.8,52.5,29.97,WNW,301,0.8,6.5,37,0.00,,,0.00,WSDL version 420,2013-05-07 14:27:00,
2013-05-07 10:32:00,80.7,53.2,29.94,North,353,2.1,6.5,39,0.00,,,0.00,WSDL version 420,2013-05-07 14:32:00,
2013-05-07 10:37:00,80.2,52.9,29.94,NW,326,1.3,4.0,39,0.00,,,0.00,WSDL version 420,2013-05-07 14:37:00,
2013-05-07 10:42:00,80.2,53.0,29.94,WNW,296,1.8,3.6,39,0.00,,,0.00,WSDL version 420,2013-05-07 14:42:00,
2013-05-07 10:47:00,79.4,52.5,29.97,North,3,1.7,4.0,40,0.00,,,0.00,WSDL version 420,2013-05-07 14:47:00,
2013-05-07 10:52:00,79.0,52.8,29.97,SW,219,2.0,4.0,41,0.00,,,0.00,WSDL version 420,2013-05-07 14:52:00,
2013-05-07 10:57:00,79.3,53.9,29.97,NW,326,2.9,4.3,41,0.00,,,0.00,WSDL version 420,2013-05-07 14:57:00,
2013-05-07 11:02:00,79.1,53.5,29.97,NNE,17,0.9,4.7,42,0.00,,,0.00,WSDL version 420,2013-05-07 15:02:00,
2013-05-07 11:07:00,79.2,54.2,29.97,WSW,257,2.3,5.4,42,0.00,,,0.00,WSDL version 420,2013-05-07 15:07:00,
2013-05-07 11:12:00,78.8,53.2,29.97,West,264,2.1,5.4,41,0.00,,,0.00,WSDL version 420,2013-05-07 15:12:00,
2013-05-07 11:17:00,78.7,53.0,30.00,West,279,2.4,3.6,41,0.00,,,0.00,WSDL version 420,2013-05-07 15:17:00,
2013-05-07 11:22:00,78.7,53.7,30.00,WNW,293,2.2,4.0,42,0.00,,,0.00,WSDL version 420,2013-05-07 15:22:00,
2013-05-07 11:27:00,78.9,53.9,30.00,SSW,212,2.5,4.0,42,0.00,,,0.00,WSDL version 420,2013-05-07 15:27:00,
2013-05-07 11:32:00,79.3,54.2,29.97,North,351,2.6,4.3,42,0.00,,,0.00,WSDL version 420,2013-05-07 15:32:00,
2013-05-07 11:37:00,79.2,53.9,29.97,NNE,29,1.0,4.3,42,0.00,,,0.00,WSDL version 420,2013-05-07 15:37:00,
2013-05-07 11:42:00,79.4,54.2,29.97,NW,321,2.3,4.0,42,0.00,,,0.00,WSDL version 420,2013-05-07 15:42:00,
2013-05-07 11:47:00,79.9,54.8,29.97,WSW,248,2.3,3.8,42,0.00,,,0.00,WSDL version 420,2013-05-07 15:47:00,
2013-05-07 11:52:00,80.0,54.9,29.97,NW,321,1.8,3.6,42,0.00,,,0.00,WSDL version 420,2013-05-07 15:52:00,
2013-05-07 11:57:00,79.9,54.1,29.97,NNW,328,2.3,5.6,41,0.00,,,0.00,WSDL version 420,2013-05-07 15:57:00,
2013-05-07 12:02:00,80.4,55.2,29.97,SSE,163,1.2,5.6,42,0.00,,,0.00,WSDL version 420,2013-05-07 16:02:00,
2013-05-07 12:07:00,81.0,55.3,29.97,SW,229,1.9,4.7,41,0.00,,,0.00,WSDL version 420,2013-05-07 16:07:00,
2013-05-07 12:12:00,81.1,55.2,29.97,ENE,65,2.1,4.0,41,0.00,,,0.00,WSDL version 420,2013-05-07 16:12:00,
2013-05-07 12:17:00,81.0,55.1,29.97,WSW,244,2.5,4.3,41,0.00,,,0.00,WSDL version 420,2013-05-07 16:17:00,
2013-05-07 12:22:00,81.6,55.9,29.97,WNW,296,0.6,4.3,42,0.00,,,0.00,WSDL version 420,2013-05-07 16:22:00,
2013-05-07 12:27:00,81.9,56.3,29.97,SSW,209,0.9,2.9,41,0.00,,,0.00,WSDL version 420,2013-05-07 16:27:00,
2013-05-07 12:32:00,81.4,55.0,29.97,WSW,255,2.3,5.6,41,0.00,,,0.00,WSDL version 420,2013-05-07 16:32:00,
2013-05-07 15:19:00,87.1,56.5,29.91,SSE,163,1.3,3.6,36,0.00,,,0.00,WSDL version 420,2013-05-07 19:19:00,
2013-05-07 15:24:00,87.3,56.1,29.91,SW,229,1.8,5.6,35,0.00,,,0.00,WSDL version 420,2013-05-07 19:24:00,
2013-05-07 15:29:00,87.1,55.3,29.91,South,188,3.6,6.3,34,0.00,,,0.00,WSDL version 420,2013-05-07 19:29:00,
2013-05-07 15:34:00,87.0,55.3,29.94,South,169,1.0,6.3,33,0.00,,,0.00,WSDL version 420,2013-05-07 19:34:00,
2013-05-07 15:51:00,87.8,55.4,29.88,WNW,286,1.2,3.6,33,0.00,,,0.00,WSDL version 420,2013-05-07 19:51:00,
2013-05-07 15:56:00,87.8,54.7,29.88,SSE,149,1.0,3.6,33,0.00,,,0.00,WSDL version 420,2013-05-07 19:56:00,
2013-05-07 16:01:00,87.9,55.1,29.91,North,3,1.6,3.8,32,0.00,,,0.00,WSDL version 420,2013-05-07 20:01:00,
2013-05-07 16:06:00,87.9,54.1,29.91,SSW,206,2.2,3.8,31,0.00,,,0.00,WSDL version 420,2013-05-07 20:06:00,
2013-05-07 16:11:00,88.6,55.2,29.91,WSW,250,2.2,5.6,32,0.00,,,0.00,WSDL version 420,2013-05-07 20:11:00,
2013-05-07 16:16:00,88.9,54.2,29.91,South,186,6.3,13.2,30,0.00,,,0.00,WSDL version 420,2013-05-07 20:16:00,
2013-05-07 16:21:00,88.6,53.2,29.91,SW,218,2.3,13.2,30,0.00,,,0.00,WSDL version 420,2013-05-07 20:21:00,
2013-05-07 16:26:00,88.4,53.5,29.91,SSE,158,0.0,4.9,31,0.00,,,0.00,WSDL version 420,2013-05-07 20:26:00,
2013-05-07 16:31:00,88.8,53.4,29.91,North,360,1.7,3.6,30,0.00,,,0.00,WSDL version 420,2013-05-07 20:31:00,
2013-05-07 16:36:00,88.6,53.1,29.91,West,267,2.2,4.0,30,0.00,,,0.00,WSDL version 420,2013-05-07 20:36:00,
2013-05-07 16:41:00,87.8,52.3,29.91,SSW,199,2.2,4.0,30,0.00,,,0.00,WSDL version 420,2013-05-07 20:41:00,
2013-05-07 16:46:00,87.0,52.1,29.91,SSE,167,1.5,3.4,30,0.00,,,0.00,WSDL version 420,2013-05-07 20:46:00,
2013-05-07 16:51:00,86.9,52.4,29.91,SSE,167,1.2,3.4,31,0.00,,,0.00,WSDL version 420,2013-05-07 20:51:00,
2013-05-07 16:56:00,86.1,51.9,29.91,WSW,240,0.6,4.0,31,0.00,,,0.00,WSDL version 420,2013-05-07 20:56:00,
2013-05-07 17:01:00,86.2,52.0,29.91,South,184,0.1,4.0,31,0.00,,,0.00,WSDL version 420,2013-05-07 21:01:00,
2013-05-07 17:06:00,85.8,52.6,29.91,NNE,18,1.1,2.9,32,0.00,,,0.00,WSDL version 420,2013-05-07 21:06:00,
2013-05-07 17:11:00,84.9,51.8,29.91,West,281,1.6,2.2,32,0.00,,,0.00,WSDL version 420,2013-05-07 21:11:00,
2013-05-07 17:16:00,85.5,52.3,29.91,NNE,23,1.5,5.4,32,0.00,,,0.00,WSDL version 420,2013-05-07 21:16:00,
2013-05-07 17:21:00,84.6,51.5,29.91,SW,235,0.0,5.4,32,0.00,,,0.00,WSDL version 420,2013-05-07 21:21:00,
2013-05-07 17:26:00,85.1,52.5,29.91,West,259,1.3,2.7,32,0.00,,,0.00,WSDL version 420,2013-05-07 21:26:00,
2013-05-07 17:31:00,85.5,52.3,29.91,South,188,0.0,2.7,32,0.00,,,0.00,WSDL version 420,2013-05-07 21:31:00,
2013-05-07 17:36:00,84.4,52.0,29.91,NW,304,0.0,2.2,33,0.00,,,0.00,WSDL version 420,2013-05-07 21:36:00,
2013-05-07 17:41:00,84.1,51.9,29.91,SW,220,1.3,6.3,33,0.00,,,0.00,WSDL version 420,2013-05-07 21:41:00,
2013-05-07 17:46:00,85.0,52.4,29.91,NW,311,2.8,6.3,32,0.00,,,0.00,WSDL version 420,2013-05-07 21:46:00,
2013-05-07 17:51:00,84.9,51.4,29.91,North,350,2.2,3.8,31,0.00,,,0.00,WSDL version 420,2013-05-07 21:51:00,
2013-05-07 17:56:00,84.0,51.0,29.91,WNW,286,1.4,6.0,32,0.00,,,0.00,WSDL version 420,2013-05-07 21:56:00,
2013-05-07 18:01:00,83.2,50.3,29.91,SSE,151,1.2,6.0,32,0.00,,,0.00,WSDL version 420,2013-05-07 22:01:00,
2013-05-07 18:06:00,83.1,51.0,29.91,South,188,1.8,3.1,33,0.00,,,0.00,WSDL version 420,2013-05-07 22:06:00,
2013-05-07 18:11:00,82.9,50.0,29.91,NNW,344,0.6,3.1,32,0.00,,,0.00,WSDL version 420,2013-05-07 22:11:00,
2013-05-07 18:16:00,82.5,49.7,29.91,South,190,0.7,2.9,32,0.00,,,0.00,WSDL version 420,2013-05-07 22:16:00,
2013-05-07 18:21:00,82.0,50.1,29.91,West,270,0.9,3.1,33,0.00,,,0.00,WSDL version 420,2013-05-07 22:21:00,
2013-05-07 18:26:00,81.6,49.4,29.91,SW,225,0.5,3.1,33,0.00,,,0.00,WSDL version 420,2013-05-07 22:26:00,
2013-05-07 18:31:00,81.1,49.3,29.91,WNW,295,0.4,2.5,33,0.00,,,0.00,WSDL version 420,2013-05-07 22:31:00,
2013-05-07 18:36:00,80.7,49.0,29.91,SSW,203,0.0,2.5,33,0.00,,,0.00,WSDL version 420,2013-05-07 22:36:00,
2013-05-07 18:41:00,80.4,49.5,29.91,SSW,203,0.0,1.3,34,0.00,,,0.00,WSDL version 420,2013-05-07 22:41:00,
2013-05-07 18:46:00,80.2,49.4,29.91,SSW,203,0.0,0.0,34,0.00,,,0.00,WSDL version 420,2013-05-07 22:46:00,
2013-05-07 18:51:00,79.8,49.2,29.91,North,0,0.0,0.0,35,0.00,,,0.00,WSDL version 420,2013-05-07 22:51:00,
2013-05-07 18:56:00,79.5,49.7,29.91,North,0,0.0,0.0,36,0.00,,,0.00,WSDL version 420,2013-05-07 22:56:00,
2013-05-07 19:01:00,78.9,50.1,29.91,West,278,1.0,1.6,38,0.00,,,0.00,WSDL version 420,2013-05-07 23:01:00,
2013-05-07 19:06:00,78.4,51.2,29.91,South,188,0.7,1.6,39,0.00,,,0.00,WSDL version 420,2013-05-07 23:06:00,
2013-05-07 19:11:00,77.8,50.5,29.91,NE,45,0.0,1.6,39,0.00,,,0.00,WSDL version 420,2013-05-07 23:11:00,
2013-05-07 19:16:00,77.5,49.9,29.91,ENE,68,0.0,1.6,38,0.00,,,0.00,WSDL version 420,2013-05-07 23:16:00,
2013-05-07 19:21:00,77.1,48.9,29.91,SSE,158,0.0,1.6,37,0.00,,,0.00,WSDL version 420,2013-05-07 23:21:00,
2013-05-07 19:26:00,76.9,49.0,29.91,South,180,0.0,0.9,38,0.00,,,0.00,WSDL version 420,2013-05-07 23:26:00,
2013-05-07 19:31:00,76.6,49.7,29.91,South,180,0.0,0.9,39,0.00,,,0.00,WSDL version 420,2013-05-07 23:31:00,
2013-05-07 19:36:00,76.2,49.2,29.91,WNW,293,1.0,0.0,39,0.00,,,0.00,WSDL version 420,2013-05-07 23:36:00,
2013-05-07 19:41:00,76.0,49.3,29.91,NNW,338,0.0,0.0,39,0.00,,,0.00,WSDL version 420,2013-05-07 23:41:00,
2013-05-07 19:46:00,75.7,49.0,29.91,SE,135,0.0,0.0,39,0.00,,,0.00,WSDL version 420,2013-05-07 23:46:00,
2013-05-07 19:51:00,75.3,48.9,29.91,NE,45,0.0,0.0,40,0.00,,,0.00,WSDL version 420,2013-05-07 23:51:00,
2013-05-07 19:56:00,74.8,48.9,29.91,West,270,0.0,0.0,40,0.00,,,0.00,WSDL version 420,2013-05-07 23:56:00,
2013-05-07 20:01:00,74.5,48.6,29.91,North,0,0.0,0.0,40,0.00,,,0.00,WSDL version 420,2013-05-08 00:01:00,
2013-05-07 20:06:00,74.1,48.3,29.91,West,270,0.0,0.0,40,0.00,,,0.00,WSDL version 420,2013-05-08 00:06:00,
2013-05-07 20:11:00,73.9,48.4,29.91,West,270,0.0,0.0,41,0.00,,,0.00,WSDL version 420,2013-05-08 00:11:00,
2013-05-07 20:16:00,73.6,48.5,29.91,West,270,0.0,0.0,41,0.00,,,0.00,WSDL version 420,2013-05-08 00:16:00,
2013-05-07 20:21:00,73.3,48.7,29.91,West,270,0.0,0.0,42,0.00,,,0.00,WSDL version 420,2013-05-08 00:21:00,
2013-05-07 20:26:00,73.0,48.6,29.91,SW,225,0.0,0.0,42,0.00,,,0.00,WSDL version 420,2013-05-08 00:26:00,
2013-05-07 20:31:00,72.8,48.4,29.91,SW,225,0.0,0.0,42,0.00,,,0.00,WSDL version 420,2013-05-08 00:31:00,
2013-05-07 20:36:00,72.6,48.7,29.91,SW,225,0.0,0.0,43,0.00,,,0.00,WSDL version 420,2013-05-08 00:36:00,
2013-05-07 20:41:00,72.3,48.6,29.91,SW,225,0.0,0.0,43,0.00,,,0.00,WSDL version 420,2013-05-08 00:41:00,
2013-05-07 20:46:00,72.1,48.4,29.94,SW,225,0.0,0.0,43,0.00,,,0.00,WSDL version 420,2013-05-08 00:46:00,
2013-05-07 20:51:00,72.1,48.4,29.94,SW,225,0.0,0.0,43,0.00,,,0.00,WSDL version 420,2013-05-08 00:51:00,
2013-05-07 20:56:00,72.0,48.4,29.94,NNW,338,0.0,0.0,44,0.00,,,0.00,WSDL version 420,2013-05-08 00:56:00,
2013-05-07 21:01:00,71.9,49.0,29.94,WNW,293,0.0,0.0,44,0.00,,,0.00,WSDL version 420,2013-05-08 01:01:00,
2013-05-07 21:06:00,71.8,48.7,29.94,SW,225,0.0,0.0,44,0.00,,,0.00,WSDL version 420,2013-05-08 01:06:00,
2013-05-07 21:11:00,71.6,49.2,29.94,West,270,0.0,0.0,45,0.00,,,0.00,WSDL version 420,2013-05-08 01:11:00,
2013-05-07 21:16:00,71.4,49.5,29.94,West,270,0.0,0.0,46,0.00,,,0.00,WSDL version 420,2013-05-08 01:16:00,
2013-05-07 21:21:00,71.2,49.3,29.94,West,270,0.0,0.0,46,0.00,,,0.00,WSDL version 420,2013-05-08 01:21:00,
2013-05-07 21:26:00,70.9,49.1,29.94,West,270,0.0,0.0,46,0.00,,,0.00,WSDL version 420,2013-05-08 01:26:00,
2013-05-07 21:31:00,70.9,49.7,29.94,West,270,0.0,0.0,47,0.00,,,0.00,WSDL version 420,2013-05-08 01:31:00,
2013-05-07 21:36:00,70.8,50.1,29.94,West,270,0.0,0.0,48,0.00,,,0.00,WSDL version 420,2013-05-08 01:36:00,
2013-05-07 21:41:00,70.5,49.9,29.94,West,270,0.0,0.0,48,0.00,,,0.00,WSDL version 420,2013-05-08 01:41:00,
2013-05-07 21:46:00,70.3,49.9,29.94,West,270,0.0,0.0,49,0.00,,,0.00,WSDL version 420,2013-05-08 01:46:00,
2013-05-07 21:51:00,70.1,50.6,29.94,West,270,0.0,0.0,50,0.00,,,0.00,WSDL version 420,2013-05-08 01:51:00,
2013-05-07 21:56:00,69.9,50.4,29.94,West,270,0.0,0.0,50,0.00,,,0.00,WSDL version 420,2013-05-08 01:56:00,
2013-05-07 22:01:00,69.6,50.7,29.97,West,270,0.0,0.0,51,0.00,,,0.00,WSDL version 420,2013-05-08 02:01:00,
2013-05-07 22:06:00,69.4,51.1,29.97,West,270,0.0,0.0,52,0.00,,,0.00,WSDL version 420,2013-05-08 02:06:00,
2013-05-07 22:11:00,69.3,51.5,29.97,West,270,0.0,0.0,53,0.00,,,0.00,WSDL version 420,2013-05-08 02:11:00,
2013-05-07 22:16:00,69.1,51.3,29.97,West,270,0.0,0.0,53,0.00,,,0.00,WSDL version 420,2013-05-08 02:16:00,
2013-05-07 22:21:00,69.0,51.4,29.97,West,270,0.0,0.0,54,0.00,,,0.00,WSDL version 420,2013-05-08 02:21:00,
2013-05-07 22:26:00,68.8,51.5,29.97,West,270,0.0,0.0,54,0.00,,,0.00,WSDL version 420,2013-05-08 02:26:00,
2013-05-07 22:31:00,68.7,51.9,29.97,West,270,0.0,0.0,55,0.00,,,0.00,WSDL version 420,2013-05-08 02:31:00,
2013-05-07 22:36:00,68.5,51.9,29.97,West,270,0.0,0.0,56,0.00,,,0.00,WSDL version 420,2013-05-08 02:36:00,
2013-05-07 22:41:00,68.4,52.1,29.97,West,270,0.0,0.0,56,0.00,,,0.00,WSDL version 420,2013-05-08 02:41:00,
2013-05-07 22:46:00,68.2,52.3,29.97,West,270,0.0,0.0,57,0.00,,,0.00,WSDL version 420,2013-05-08 02:46:00,
2013-05-07 22:51:00,68.2,52.4,29.97,North,0,0.0,0.0,57,0.00,,,0.00,WSDL version 420,2013-05-08 02:51:00,
2013-05-07 22:56:00,68.1,52.8,29.97,West,270,0.0,0.0,58,0.00,,,0.00,WSDL version 420,2013-05-08 02:56:00,
2013-05-07 23:01:00,68.0,53.0,29.97,West,270,0.0,0.0,59,0.00,,,0.00,WSDL version 420,2013-05-08 03:01:00,
2013-05-07 23:06:00,68.0,53.2,29.97,West,270,0.0,0.0,59,0.00,,,0.00,WSDL version 420,2013-05-08 03:06:00,
2013-05-07 23:11:00,67.8,53.4,29.97,West,270,0.0,0.0,60,0.00,,,0.00,WSDL version 420,2013-05-08 03:11:00,
2013-05-07 23:16:00,67.8,53.7,29.97,West,270,0.0,0.0,61,0.00,,,0.00,WSDL version 420,2013-05-08 03:16:00,
2013-05-07 23:21:00,67.6,53.7,29.97,West,270,0.0,0.0,61,0.00,,,0.00,WSDL version 420,2013-05-08 03:21:00,
2013-05-07 23:26:00,67.6,53.6,29.97,West,270,0.0,0.0,61,0.00,,,0.00,WSDL version 420,2013-05-08 03:26:00,
2013-05-07 23:31:00,67.5,53.9,29.97,West,270,0.0,0.0,62,0.00,,,0.00,WSDL version 420,2013-05-08 03:31:00,
2013-05-07 23:36:00,67.5,54.0,29.97,West,270,0.0,0.0,62,0.00,,,0.00,WSDL version 420,2013-05-08 03:36:00,
2013-05-07 23:41:00,67.3,54.1,29.97,North,0,0.0,0.0,63,0.00,,,0.00,WSDL version 420,2013-05-08 03:41:00,
2013-05-07 23:46:00,67.2,54.2,29.94,West,270,0.0,0.0,63,0.00,,,0.00,WSDL version 420,2013-05-08 03:46:00,
2013-05-07 23:51:00,67.1,54.1,29.94,West,270,0.0,0.0,63,0.00,,,0.00,WSDL version 420,2013-05-08 03:51:00,
2013-05-07 23:56:00,67.0,54.4,29.94,West,270,0.0,0.0,64,0.00,,,0.00,WSDL version 420,2013-05-08 03:56:00,